Location: Newark
(43.4306°N, 0.3089°E)
Time: 05:20:25
(UTC+00:00)

Vanguard 3 - Pass Details

Date: 02 September 2019
Orbit: 508 x 3263 km, 33.4° (Epoch: 19 September)

Event Time Altitude Azimuth Distance (km) Brightness Sun altitude
Rises 13:41:55 0° 239° (WSW) 6,989 12.5 47.9°
Reaches altitude 10° 13:47:18 10° 234° (SW) 5,703 12.4 47.2°
Maximum altitude 14:02:03 44° 170° (S) 2,639 10.7 45.4°
Drops below altitude 10° 14:11:01 10° 102° (ESE) 3,539 10.2 44.2°
Sets 14:13:32 0° 95° (E) 4,212 10.5 43.8°
